Regional Weather Roundup
Issued by NWS

Home | Current Version | Previous Version | Text Only | Print | Product List | Glossary On
Versions: 1 2 3 4 5 6 7 8 9 10 11 12 13 14 15 16 17 18 19 20 21 22 23 24 25 26 27 28
000
ASUS45 KCYS 042110
RWRWY

WYOMING REGIONAL WEATHER ROUNDUP
NATIONAL WEATHER SERVICE CHEYENNE WY
200 PM MST SUN DEC 04 2016

NOTE:  "FAIR" INDICATES FEW OR NO CLOUDS BELOW 12,000 FEET
WITH NO SIGNIFICANT WEATHER AND/OR OBSTRUCTIONS TO VISIBILITY.

WYZ001-042200-
YELLOWSTONE NATIONAL PARK

CITY           SKY/WX    TMP DP  RH WIND       PRES   REMARKS
LK YELLOWSTONE   N/A     22  19  89 W8G22     29.69F WCI  12
W YELLOWSTONE  NOT AVBL

$$
WYZ002>013-054>058-071-098>099-042200-
NORTHERN WYOMING

CITY           SKY/WX    TMP DP  RH WIND       PRES   REMARKS
JACKSON        CLOUDY    28  27  93 S15       29.78F VSB 1/2 WCI  17
CODY           FAIR      38  24  57 NW7G16    29.65F WCI  33
GREYBULL       FAIR      40  16  37 N6        29.66F
WORLAND        FAIR      40  23  50 N7        29.64F
SHERIDAN       CLOUDY    40  19  43 E5        29.64F
BUFFALO        FAIR      44  15  31 NE8       29.63F
GILLETTE       FAIR      39  18  42 S5        29.67F
HULETT         FAIR      37  19  48 S10       29.69F WCI  30
NEWCASTLE      FAIR      36  18  48 SE9       29.73F WCI  29

$$
WYZ014>020-022>026-101>103-042200-
CENTRAL WYOMING

CITY           SKY/WX    TMP DP  RH WIND       PRES   REMARKS
BIG PINEY      PTSUNNY   36  22  56 W24G32    29.86F WCI  24
PINEDALE       FLURRIES  28  19  69 MISG      29.87F
DUBOIS         LGT SNOW  28  21  74 W25G39    29.67F WCI  14
LANDER         FAIR      43  18  36 NW20G28   29.68F
RIVERTON       FAIR      43  15  32 SW8       29.69F
CASPER         FAIR      40  17  39 SW39G46   29.69F WCI  27
DOUGLAS        FAIR      43  18  36 SW22G29   29.72F

$$
WYZ021-027>030-104>119-042200-
SOUTHERN WYOMING

CITY           SKY/WX    TMP DP  RH WIND       PRES   REMARKS
EVANSTON       PTSUNNY   36  15  42 SW18G25   29.95F WCI  26
KEMMERER         N/A     32  18  55 W8        29.91F WCI  25
FORT BRIDGER   MOCLDY    40  15  37 W22G28    29.95F WCI  29
ROCK SPRINGS   PTSUNNY   35  15  44 SW14      29.91F WCI  26
DIXON          CLOUDY    32  14  47 SW17G24   30.01F WCI  21
RAWLINS        FAIR      34  15  46 SW25G33   29.86F WCI  21
SARATOGA       MOCLDY    34  19  55 SW21G26   29.90F WCI  22
LARAMIE        CLOUDY    37  16  42 W24G32    29.85F WCI  26
CHEYENNE       FAIR      46  15  28 W21G31    29.81F
TORRINGTON     FAIR      47  14  26 W16       29.77F
PINE BLUFFS    FAIR      45   9  23 SW15G22   29.81F

$$




USA.gov is the U.S. government's official web portal to all federal, state and local government web resources and services.